TimeEST,TemperatureF,Dew PointF,Humidity,Sea Level PressureIn,VisibilityMPH,Wind Direction,Wind SpeedMPH,Gust SpeedMPH,PrecipitationIn,Events,Conditions,WindDirDegrees,DateUTC
12:53 AM,42.1,37.9,85,30.28,9.0,Variable,5.8,-,N/A,,Overcast,0,2013-11-23 05:53:00
1:53 AM,41.0,37.0,86,30.27,10.0,NNW,6.9,-,N/A,,Overcast,330,2013-11-23 06:53:00
2:53 AM,39.9,36.0,86,30.29,10.0,North,5.8,-,N/A,,Overcast,350,2013-11-23 07:53:00
3:01 AM,39.9,36.0,86,30.28,10.0,Variable,4.6,-,N/A,,Overcast,0,2013-11-23 08:01:00
3:33 AM,39.9,36.0,86,30.27,10.0,Variable,4.6,-,N/A,,Overcast,0,2013-11-23 08:33:00
3:53 AM,39.0,36.0,89,30.28,10.0,Variable,5.8,-,N/A,,Overcast,0,2013-11-23 08:53:00
4:53 AM,39.0,35.1,86,30.29,10.0,Variable,3.5,-,N/A,,Overcast,0,2013-11-23 09:53:00
5:25 AM,39.0,35.1,86,30.29,10.0,Variable,3.5,-,N/A,,Overcast,0,2013-11-23 10:25:00
5:53 AM,37.9,34.0,86,30.29,10.0,North,4.6,-,N/A,,Overcast,10,2013-11-23 10:53:00
6:53 AM,37.0,32.0,82,30.32,10.0,Variable,3.5,-,N/A,,Overcast,0,2013-11-23 11:53:00
7:53 AM,36.0,30.0,79,30.35,10.0,NNW,6.9,-,N/A,,Overcast,330,2013-11-23 12:53:00
8:10 AM,35.1,30.0,82,30.34,10.0,NNW,5.8,-,N/A,,Overcast,330,2013-11-23 13:10:00
8:53 AM,35.1,28.9,78,30.36,10.0,Variable,5.8,-,N/A,,Overcast,0,2013-11-23 13:53:00
9:53 AM,35.1,28.0,76,30.37,10.0,WNW,8.1,-,N/A,,Overcast,300,2013-11-23 14:53:00
10:53 AM,37.0,28.9,73,30.37,10.0,NW,4.6,-,N/A,,Overcast,320,2013-11-23 15:53:00
11:53 AM,37.9,28.0,68,30.35,10.0,Variable,5.8,-,N/A,,Overcast,0,2013-11-23 16:53:00
12:53 PM,42.1,28.9,60,30.32,10.0,West,9.2,-,N/A,,Scattered Clouds,260,2013-11-23 17:53:00
1:15 PM,42.1,28.0,58,30.30,10.0,West,9.2,19.6,N/A,,Mostly Cloudy,260,2013-11-23 18:15:00
1:39 PM,39.9,26.1,58,30.29,10.0,West,8.1,-,N/A,,Scattered Clouds,260,2013-11-23 18:39:00
1:53 PM,41.0,27.0,57,30.31,10.0,West,11.5,-,N/A,,Partly Cloudy,270,2013-11-23 18:53:00
2:53 PM,42.1,25.0,51,30.30,10.0,Variable,5.8,-,N/A,,Partly Cloudy,0,2013-11-23 19:53:00
3:53 PM,41.0,23.0,49,30.31,10.0,West,9.2,-,N/A,,Clear,260,2013-11-23 20:53:00
4:53 PM,37.9,19.9,48,30.32,10.0,West,9.2,-,N/A,,Clear,280,2013-11-23 21:53:00
5:53 PM,37.0,17.1,44,30.33,10.0,NW,8.1,-,N/A,,Clear,310,2013-11-23 22:53:00
6:53 PM,33.1,14.0,46,30.37,10.0,NNW,8.1,-,N/A,,Clear,330,2013-11-23 23:53:00
7:53 PM,30.0,16.0,56,30.40,10.0,Variable,6.9,17.3,N/A,,Clear,0,2013-11-24 00:53:00
8:53 PM,28.0,15.1,58,30.43,10.0,Variable,6.9,-,N/A,,Clear,0,2013-11-24 01:53:00
9:53 PM,27.0,14.0,58,30.45,10.0,Variable,6.9,17.3,N/A,,Partly Cloudy,0,2013-11-24 02:53:00
10:53 PM,27.0,12.0,53,30.46,10.0,NNW,10.4,20.7,N/A,,Overcast,340,2013-11-24 03:53:00
11:53 PM,24.1,10.9,57,30.48,10.0,North,8.1,17.3,N/A,,Scattered Clouds,350,2013-11-24 04:53:00